GFSMA_925_thetae_057.txt.gz
Theta_e
348 351 350 349 349 349 343 349 350 348 345 346 343 348 347 345 342 338 335 334 340 346 340 338 338 344 344 342 340 334 335 344 341 341 344 343 341 342 340 338 334 333 337
351 351 353 351 350 348 345 351 351 349 347 346 345 344 342 345 345 342 333 334 337 340 342 344 341 343 344 343 340 342 339 337 338 339 338 341 342 340 338 339 334 332 333
354 352 349 352 351 351 350 350 351 349 346 345 342 343 342 345 344 344 338 337 333 340 343 344 341 340 343 343 343 343 342 341 339 335 337 334 338 340 341 340 338 336 334
354 352 352 351 351 351 351 349 350 343 343 342 341 340 341 345 341 345 345 343 335 334 338 341 341 342 341 347 343 340 340 340 341 341 339 334 336 341 340 337 339 338 338
353 352 350 350 350 350 349 348 348 346 350 348 340 337 336 339 340 345 345 341 343 337 336 336 336 338 341 347 345 344 343 342 341 340 339 339 338 338 338 338 338 336 336
351 351 350 349 349 349 350 350 347 348 347 336 339 337 338 340 341 339 340 342 343 342 339 338 337 338 339 342 341 342 343 342 341 340 339 340 339 339 338 339 340 339 339
352 354 353 353 351 350 352 350 345 347 345 335 336 337 335 339 342 339 339 341 342 342 343 342 339 339 339 341 344 343 343 344 342 341 339 339 339 339 339 339 340 340 339
355 356 355 353 354 353 352 350 351 349 345 337 338 342 338 337 340 340 340 339 341 342 343 344 344 343 342 342 343 340 339 338 344 343 339 338 339 339 339 339 338 338 339
351 354 354 352 353 352 353 350 349 348 346 339 336 342 340 336 341 342 340 341 340 342 340 341 340 342 344 345 345 335 332 337 342 340 338 338 331 322 318 317 318 318 319
352 357 355 352 354 352 353 350 350 346 347 343 338 335 340 345 335 336 339 336 339 336 337 340 339 343 343 341 339 333 327 334 333 327 321 321 323 323 323 322 322 322 321
349 351 357 354 352 355 353 353 351 352 352 344 338 336 337 339 344 341 339 340 340 338 338 339 338 338 338 335 332 335 320 320 323 324 324 325 326 326 325 326 326 327 328
352 352 358 357 355 355 351 353 353 352 349 351 344 343 336 336 339 339 339 342 340 339 338 340 339 336 335 334 332 325 323 324 327 327 326 327 327 327 327 327 328 328 328
356 354 353 358 357 356 353 353 355 353 349 351 348 342 339 337 338 339 338 343 342 344 340 339 339 339 338 336 335 332 328 327 328 329 329 329 329 328 328 328 328 328 328
353 351 354 353 357 356 354 356 354 353 354 345 348 345 337 337 339 338 337 338 337 339 341 342 339 338 338 338 337 336 332 329 329 328 328 328 328 327 327 326 327 327 327
353 353 354 354 354 356 354 352 355 357 356 354 348 348 339 337 339 340 338 337 338 336 337 341 341 339 338 338 338 337 335 333 330 329 329 329 328 327 327 327 328 328 328
351 351 355 356 354 354 355 355 353 359 357 356 355 351 345 337 339 339 340 338 337 338 336 341 339 339 340 338 338 338 337 335 335 336 335 333 332 332 332 329 327 327 327
352 359 358 358 356 353 356 359 357 355 359 358 357 355 351 345 335 338 339 339 339 338 338 337 339 338 338 338 338 338 337 337 338 338 337 337 335 334 331 327 327 327 328
344 350 358 361 356 354 355 356 358 357 356 357 358 357 354 352 350 337 340 340 339 339 338 337 338 342 338 336 336 338 338 339 337 334 336 337 336 332 328 328 329 330 329
352 345 348 358 360 357 357 355 352 359 359 359 357 357 356 353 352 351 342 342 341 339 339 340 338 341 338 337 337 337 336 336 338 339 339 339 337 335 331 330 331 331 330
357 354 353 353 359 360 357 355 355 353 356 355 356 360 359 356 353 352 350 343 340 342 339 341 344 343 341 339 337 338 338 337 337 339 337 336 336 334 332 331 332 331 330
359 358 357 362 360 361 360 358 356 356 358 358 355 357 359 360 359 355 352 349 344 340 344 341 341 342 341 343 343 340 338 338 339 341 340 339 338 335 333 334 333 332 332
360 360 363 360 362 363 362 360 359 359 359 359 361 360 358 360 361 360 357 353 349 344 338 343 342 340 341 340 341 341 340 342 342 340 341 340 339 336 336 335 334 334 333
365 363 361 364 363 363 363 362 362 360 360 361 361 361 361 359 360 361 359 357 354 352 348 339 341 342 340 341 340 341 341 340 340 339 339 338 337 337 336 335 334 332 332
365 365 365 364 365 365 364 363 363 363 361 360 360 362 362 361 360 360 359 358 355 353 352 349 342 340 341 342 340 338 341 342 340 338 337 337 337 336 333 334 331 325 323
366 365 365 365 365 366 365 365 365 365 362 361 361 360 361 362 362 361 360 358 356 354 351 351 349 346 342 340 341 340 338 340 339 338 338 337 336 333 333 333 323 324 322
366 366 366 366 366 366 366 366 366 365 361 360 360 360 360 360 361 362 361 359 357 355 353 350 348 346 344 342 341 338 337 338 338 337 337 336 334 333 329 322 322 322 320

GFSMA_925_thetae_060.txt.gz
Theta_e
349 349 349 347 347 347 347 348 347 347 344 344 346 347 346 345 343 336 334 334 341 346 346 347 346 346 343 339 340 338 340 341 340 340 342 340 340 339 338 337 334 333 337
347 348 349 348 348 348 345 349 349 346 347 346 346 346 344 344 341 336 334 335 336 346 343 347 346 346 346 344 342 337 334 338 336 338 338 341 341 339 338 337 334 333 336
350 350 348 349 350 349 347 349 349 348 347 345 344 343 343 344 343 339 334 335 337 339 341 346 345 344 345 345 345 342 339 336 337 337 338 334 337 340 340 339 339 338 334
351 350 350 351 351 350 350 350 348 346 344 342 343 342 342 345 343 343 338 335 334 336 341 342 342 341 343 347 347 344 341 342 342 341 338 335 335 341 340 338 338 337 337
352 350 349 349 350 349 349 350 347 346 347 346 343 340 341 343 342 343 342 340 335 333 335 337 339 340 342 348 348 347 345 342 340 340 339 339 339 336 337 338 337 337 336
348 349 349 347 349 349 349 349 348 348 344 336 338 336 340 341 340 340 343 342 341 337 337 337 337 337 338 347 344 345 344 342 342 340 340 340 339 339 339 337 338 339 339
347 349 347 349 349 350 350 350 348 345 345 335 337 338 337 340 341 341 342 343 343 342 341 339 337 337 339 340 341 342 342 343 341 339 339 339 338 339 339 339 339 339 339
349 352 350 350 351 350 350 350 349 349 343 336 338 339 332 338 341 340 340 341 341 342 342 342 340 340 340 340 342 341 340 340 340 343 341 339 339 338 339 339 335 333 335
352 354 353 351 353 353 352 351 350 350 347 341 336 341 335 333 338 341 339 340 341 342 342 342 341 341 342 342 343 337 334 333 339 344 340 338 337 326 318 318 318 317 317
353 355 353 353 353 353 352 352 349 348 347 339 335 336 341 343 333 334 339 340 340 340 340 339 340 341 342 342 338 336 324 331 337 338 331 322 320 322 322 322 323 323 323
352 353 354 354 351 353 351 351 350 348 347 345 345 333 339 341 343 334 333 338 340 340 338 339 338 338 339 339 333 332 325 320 322 323 323 324 324 324 325 325 326 326 327
347 352 354 355 353 351 352 351 352 351 351 349 344 343 337 336 340 338 335 338 338 337 337 339 339 338 336 336 333 329 324 322 324 326 326 326 327 327 327 328 328 328 328
346 348 350 354 356 353 354 350 352 353 352 350 348 343 337 335 336 338 337 339 340 339 340 338 338 339 337 336 333 330 327 326 327 328 328 328 328 328 328 328 328 328 330
346 346 350 352 356 356 355 352 352 353 352 351 349 345 339 337 337 338 338 337 334 337 341 340 339 339 338 337 337 335 331 330 328 328 328 329 328 328 327 327 326 326 327
345 348 349 353 353 356 356 354 352 353 353 352 347 345 345 339 337 339 339 337 335 333 334 341 341 340 338 339 338 336 335 334 331 330 329 329 328 328 327 327 326 327 327
346 349 352 351 352 353 355 355 353 354 355 355 354 352 345 341 337 338 340 339 337 336 331 337 340 340 339 339 338 337 337 336 334 333 332 332 333 331 329 330 331 328 327
348 350 351 354 355 355 354 356 355 353 355 357 356 354 352 347 338 337 339 339 339 337 336 336 337 339 339 339 338 338 338 337 335 333 334 335 334 333 333 331 330 327 327
347 347 354 358 353 354 356 354 355 354 354 357 357 356 355 354 351 338 336 338 339 339 338 336 337 337 338 339 339 338 338 337 336 336 336 337 335 335 335 332 328 328 330
352 347 346 349 359 358 356 354 354 355 356 354 355 356 356 356 354 352 347 338 337 341 340 339 339 337 337 339 339 339 338 337 336 337 337 335 336 337 337 335 329 329 331
354 354 349 345 350 358 358 354 353 355 355 353 354 353 353 356 355 355 353 349 346 341 342 341 339 339 339 340 338 337 337 337 337 337 337 337 338 339 336 336 332 330 333
352 351 353 352 349 351 355 358 354 354 354 353 353 355 356 356 356 357 355 354 351 349 345 342 341 341 341 341 340 338 337 337 337 336 336 339 340 338 336 335 333 331 331
357 355 354 354 355 354 354 355 357 357 355 355 354 352 352 352 353 354 356 357 356 353 347 342 340 339 340 341 342 340 339 338 338 338 338 339 339 338 337 335 333 334 333
360 357 357 356 355 356 357 358 358 358 357 357 357 356 356 356 354 354 354 357 358 358 356 351 341 340 340 339 339 340 341 340 340 340 339 339 340 337 336 336 335 334 334
362 361 358 358 359 358 357 358 360 360 359 358 358 357 357 357 358 358 358 358 358 358 357 354 351 348 344 343 340 339 339 340 339 340 339 338 337 337 336 336 333 334 332
362 362 362 361 359 360 360 360 360 361 360 359 359 358 358 359 359 359 359 358 358 356 357 357 358 357 355 349 346 340 340 339 339 339 337 337 337 336 335 332 332 331 326
363 363 363 363 363 363 362 362 363 363 360 359 360 360 360 360 359 360 361 360 358 358 357 356 356 353 352 351 344 341 342 340 338 336 333 336 336 335 332 332 333 326 323

GFSMA_925_thetae_063.txt.gz
Theta_e
349 349 348 348 347 346 346 347 346 346 345 344 346 346 346 345 344 337 338 344 345 344 346 347 345 339 340 338 338 339 340 339 339 338 339 337 337 338 336 336 335 333 334
347 349 349 346 346 346 345 348 346 347 346 345 346 344 343 345 343 337 338 342 343 345 342 346 346 347 344 342 340 336 341 343 339 340 340 342 340 339 337 337 337 335 334
347 348 348 348 349 347 345 346 346 345 343 344 343 346 343 344 342 337 336 335 338 344 341 345 345 344 346 344 343 342 339 336 336 338 337 335 335 339 340 340 339 339 338
349 349 345 349 350 347 347 348 343 346 345 343 342 342 344 344 342 339 335 335 337 339 341 343 344 343 344 344 343 343 341 341 341 340 338 335 334 335 340 339 338 337 334
351 347 349 350 350 349 348 345 347 346 344 347 345 341 342 343 343 342 339 338 335 337 337 339 340 341 342 347 346 343 342 341 340 340 340 339 338 337 337 338 337 337 338
351 348 348 349 348 350 349 348 349 347 346 337 339 338 342 343 344 342 343 343 338 335 336 337 337 337 338 343 346 344 341 341 341 341 340 339 340 339 338 338 338 339 339
349 348 345 348 347 348 348 347 348 346 343 336 336 338 339 338 341 343 342 343 341 341 337 337 337 337 337 339 340 341 341 343 341 339 339 338 338 338 338 338 339 339 338
347 348 346 349 348 350 350 349 349 346 343 335 336 336 330 337 341 341 340 341 342 342 341 341 339 339 338 339 340 342 341 341 342 340 341 340 339 338 338 337 329 323 324
347 349 349 348 349 350 350 350 349 349 345 339 336 338 333 332 336 340 339 338 341 341 341 341 341 341 341 341 341 342 336 337 333 338 340 338 337 332 319 318 319 318 318
348 349 352 352 350 352 351 350 350 348 348 342 335 337 341 338 334 334 338 338 339 340 340 340 340 339 340 342 342 339 330 325 333 339 337 330 321 320 321 322 323 324 325
349 350 352 354 352 352 352 351 351 348 347 342 337 333 339 341 339 332 332 337 338 338 340 339 338 339 339 339 339 333 333 320 322 326 324 322 323 323 323 324 325 325 326
345 350 352 354 353 352 351 350 350 350 345 348 344 342 335 337 340 339 332 335 336 338 339 338 337 339 338 336 337 334 332 321 321 324 324 325 326 326 327 327 327 328 328
345 346 352 352 354 354 351 350 351 351 349 350 349 343 341 337 336 339 337 336 337 338 338 337 336 338 338 338 337 335 331 325 323 326 326 327 327 327 328 328 328 328 329
347 344 345 351 353 353 354 352 353 350 352 351 348 349 344 338 335 336 337 336 333 335 339 340 339 338 337 338 337 336 334 329 325 326 327 328 328 328 328 328 327 327 326
346 346 345 345 348 351 354 354 354 350 352 352 351 350 348 343 338 337 338 338 334 331 331 338 341 340 339 338 339 337 337 334 330 328 328 328 328 328 328 327 327 327 326
347 345 343 346 347 349 352 356 355 354 350 352 352 352 347 345 345 340 337 339 339 335 329 335 336 339 340 340 339 338 338 337 335 333 331 330 329 329 329 329 328 329 329
346 345 345 346 350 351 352 353 355 355 353 353 352 353 353 352 349 345 342 339 339 338 334 335 335 336 337 339 339 339 339 338 337 336 334 332 331 331 329 329 329 329 330
346 346 345 345 348 352 353 353 353 354 355 354 352 353 354 354 353 351 348 342 340 339 339 337 338 337 336 336 337 338 338 338 338 337 337 335 333 333 332 330 330 330 330
348 348 347 349 351 351 352 352 353 354 354 354 353 351 352 355 355 354 353 352 347 342 339 339 338 338 338 338 337 337 338 338 338 338 337 336 334 334 335 334 333 330 330
350 350 350 349 347 348 353 356 354 356 355 353 353 353 353 352 353 353 352 352 353 352 348 343 339 339 339 339 338 338 338 338 339 338 337 336 335 337 336 336 336 333 331
348 348 347 349 349 347 346 349 357 356 355 354 353 353 354 353 348 350 350 351 353 353 350 347 343 341 340 339 340 339 339 338 338 338 337 336 336 337 337 335 335 335 334
350 350 350 347 348 349 348 344 345 354 356 355 353 353 353 353 352 351 351 353 354 352 350 348 346 345 343 342 341 339 339 337 336 336 337 337 337 338 338 338 337 335 333
354 352 352 351 350 349 348 348 348 351 353 354 354 354 354 354 354 353 353 353 353 354 355 354 350 347 346 345 342 341 339 339 338 338 338 338 338 339 336 333 336 335 333
357 355 354 354 353 353 352 351 350 351 353 354 355 355 355 355 355 355 355 355 355 355 355 355 355 354 353 352 346 343 341 339 340 340 339 338 338 335 333 333 336 335 334
358 358 357 356 355 356 355 353 353 355 356 356 356 356 356 356 356 357 356 356 357 357 357 357 358 358 357 357 353 348 339 338 338 339 338 338 336 334 333 334 336 335 333
358 359 360 359 358 357 357 357 357 356 355 356 357 357 358 358 357 358 357 358 357 357 358 357 356 357 358 358 357 352 345 341 340 340 339 334 334 333 334 335 333 333 332

GFSMA_925_thetae_069.txt.gz
Theta_e
348 350 346 347 348 346 345 344 345 348 349 349 349 350 347 348 346 342 342 337 341 343 344 341 340 339 336 337 338 339 339 336 336 337 340 340 338 339 336 340 337 336 332
348 348 347 350 349 349 345 344 344 345 349 348 349 348 350 348 347 344 342 347 343 342 342 343 344 342 339 337 336 335 339 343 339 337 337 336 340 340 339 340 340 337 339
346 347 346 346 350 346 345 343 344 343 346 345 348 348 349 348 347 344 343 344 345 343 342 342 343 342 344 344 340 339 336 332 333 333 335 334 334 332 335 338 338 336 334
347 347 347 346 347 346 344 344 342 348 347 346 346 348 347 347 346 346 344 344 344 345 341 340 343 343 341 342 343 343 340 340 339 339 339 339 338 336 334 334 337 337 337
349 348 347 347 345 346 346 346 347 346 348 349 347 346 347 347 345 344 344 344 344 344 346 343 339 341 340 346 347 345 344 341 340 340 339 339 339 339 339 338 338 338 338
349 350 348 348 347 345 348 348 345 347 345 339 341 343 346 346 347 346 345 344 344 344 344 345 346 344 336 337 342 345 344 343 341 341 340 340 339 338 338 339 339 339 339
348 349 349 349 349 350 352 348 348 348 342 337 341 341 342 342 344 346 346 345 346 345 344 344 343 344 344 338 338 339 341 344 344 343 341 340 339 338 337 337 338 335 327
348 349 349 349 347 349 345 345 348 349 347 337 341 341 341 342 343 343 344 344 345 345 345 344 344 340 344 344 343 340 340 341 341 341 341 340 339 337 337 334 321 318 318
348 348 348 347 347 349 347 347 345 349 347 339 338 341 339 340 341 343 344 343 342 344 345 345 345 343 340 342 339 342 340 339 332 336 337 341 337 333 322 319 319 320 321
346 347 347 348 349 349 348 347 349 350 348 347 340 341 341 340 341 342 342 343 342 340 343 344 344 341 338 342 339 339 337 336 328 328 337 337 331 322 321 321 322 323 324
344 345 346 348 349 351 350 349 347 348 351 349 343 339 343 345 342 342 342 341 342 342 342 342 343 343 342 340 343 339 334 332 328 324 331 331 325 322 323 323 324 325 326
348 344 345 347 349 349 352 350 349 349 351 348 346 340 341 341 342 345 343 343 342 342 341 341 341 343 342 342 338 337 336 332 330 323 324 325 324 324 325 326 326 327 328
348 348 344 345 349 349 350 352 351 350 350 352 349 348 346 344 340 341 341 341 342 342 342 342 342 341 342 342 342 338 337 336 333 329 325 325 325 325 326 327 328 328 329
346 347 344 343 344 346 350 352 354 354 352 353 354 352 351 349 345 343 340 340 340 340 341 343 343 340 338 340 342 338 338 338 337 335 331 328 327 326 327 327 328 329 328
345 340 340 343 343 343 345 351 354 354 353 352 354 353 354 352 350 346 342 340 341 343 342 341 340 338 338 336 336 338 339 338 338 337 336 334 328 328 327 327 327 328 328
344 345 339 341 344 344 344 347 353 355 354 355 355 355 353 353 353 351 348 346 343 342 344 340 340 341 340 339 338 337 337 337 338 338 338 337 335 330 329 328 328 328 328
344 344 342 342 345 346 346 347 348 353 356 356 357 357 356 354 353 352 352 350 349 346 344 340 340 340 339 338 337 337 337 337 337 336 337 339 338 336 333 331 330 329 328
344 345 345 342 342 344 346 349 352 353 356 356 357 358 357 356 356 355 354 354 353 351 348 349 346 345 343 342 340 339 339 340 340 338 336 337 336 338 337 335 331 328 329
345 345 345 345 342 349 347 348 351 353 356 357 357 358 358 358 358 356 356 354 352 354 353 351 350 350 349 347 347 346 345 344 344 343 341 340 337 336 337 337 335 330 328
346 345 345 345 344 346 348 348 351 352 354 355 356 356 357 357 358 358 358 357 356 355 352 352 350 349 349 348 349 347 347 348 349 347 345 343 343 342 338 337 336 332 329
347 346 346 346 346 349 347 348 350 352 354 355 356 356 357 356 354 355 356 356 356 356 355 354 353 352 352 352 352 352 352 351 351 348 348 347 343 340 339 338 337 335 335
349 348 349 348 349 349 347 346 345 350 352 354 354 354 355 355 354 353 353 352 353 357 357 356 354 354 356 356 355 355 356 355 356 353 348 345 342 342 341 339 340 338 335
353 352 351 351 351 350 346 345 345 346 349 351 352 351 351 350 352 354 356 353 352 352 352 353 356 357 357 358 358 359 358 356 354 352 347 344 343 342 341 340 338 337 336
351 351 352 352 352 351 347 345 345 346 349 350 351 350 350 350 350 352 353 353 354 354 354 352 352 354 356 358 359 358 357 355 352 350 348 342 345 344 341 340 338 337 333
352 351 351 351 351 350 348 346 347 348 349 351 351 351 352 351 350 349 352 352 353 354 355 356 356 356 356 357 357 355 351 352 352 351 348 342 342 340 336 336 336 334 334
353 353 353 353 352 352 349 347 348 350 351 352 352 353 353 352 353 352 352 353 355 357 359 360 360 359 358 358 358 358 357 351 350 349 344 342 338 335 333 333 333 333 333

GFSMA_925_thetae_072.txt.gz
Theta_e
352 351 351 352 351 350 350 350 350 349 349 349 348 348 346 345 342 341 343 339 342 342 340 337 335 334 335 338 341 340 340 336 336 337 340 341 341 340 339 340 338 337 336
351 351 351 352 351 350 349 350 349 350 348 348 347 348 348 347 345 343 343 344 341 341 343 345 344 340 339 332 332 335 339 343 341 337 337 336 337 338 340 340 340 339 339
350 351 351 352 351 351 352 350 348 350 345 346 347 347 347 348 346 345 344 344 345 341 338 344 343 344 344 344 340 340 339 336 335 335 337 337 335 333 332 336 339 337 337
350 351 350 351 350 351 349 349 348 347 344 345 345 344 344 345 347 347 345 345 345 347 345 337 340 342 341 342 344 344 342 341 340 339 339 339 340 340 340 338 338 338 338
355 353 351 349 350 350 347 345 346 347 344 343 342 344 345 344 343 343 345 346 345 344 345 347 336 338 339 344 348 347 346 344 341 341 340 339 339 339 339 339 339 339 338
355 353 350 351 350 347 347 348 346 347 344 341 339 342 344 344 343 342 344 343 343 343 342 345 348 348 338 336 339 344 344 344 343 342 342 338 338 338 338 338 338 338 337
355 355 352 351 350 349 350 347 350 349 343 344 340 342 341 343 343 341 341 342 344 345 344 344 345 344 346 344 340 339 339 340 342 344 344 341 339 338 337 337 337 328 323
356 354 354 352 350 349 350 349 350 347 344 343 341 339 342 338 340 341 342 342 343 344 344 345 345 345 345 343 344 342 340 339 338 338 339 340 342 338 337 333 321 318 318
355 355 352 353 352 350 350 351 350 351 344 344 345 341 339 342 340 341 344 343 344 343 343 344 345 346 346 344 344 343 340 338 336 329 333 336 339 336 329 320 319 320 322
354 354 354 352 353 351 350 350 350 351 351 342 341 341 343 344 344 347 342 343 345 344 344 343 343 345 346 346 344 339 338 335 333 324 329 334 334 328 321 320 321 322 324
354 353 355 355 355 353 352 352 350 352 350 348 341 340 345 343 345 344 344 343 342 343 343 344 343 343 345 346 345 346 335 332 329 323 323 326 327 324 322 322 323 324 326
351 353 354 355 353 352 354 354 354 352 354 351 347 344 341 342 342 344 345 344 344 343 342 342 343 344 344 344 345 343 340 336 333 330 324 324 324 324 324 325 325 326 327
347 348 355 355 354 354 354 354 355 355 352 353 354 347 345 344 344 342 342 342 343 342 343 342 342 343 344 345 345 344 343 338 337 334 331 327 326 325 326 326 327 327 328
346 347 352 353 354 353 355 356 355 353 355 353 355 354 349 348 348 345 344 343 343 341 342 345 342 343 343 343 344 343 344 342 339 338 336 334 328 328 327 326 327 328 329
348 349 350 351 351 352 354 356 355 356 356 357 356 356 356 350 350 349 347 344 342 344 344 343 343 345 343 343 343 343 345 346 343 341 339 337 336 331 329 328 327 327 328
351 350 350 349 349 352 353 355 353 355 358 356 354 355 356 351 352 352 350 347 347 346 347 342 342 342 344 344 342 343 345 343 342 338 337 338 338 337 335 330 328 327 327
353 354 351 351 348 351 353 355 355 353 355 358 358 358 359 358 353 349 350 350 348 348 348 344 341 341 345 348 347 347 346 346 345 344 342 338 337 337 338 337 333 328 327
355 355 354 353 351 350 353 355 355 352 355 357 358 359 360 359 360 360 355 352 351 352 352 354 350 348 348 349 352 352 350 347 345 344 344 343 342 339 337 338 338 335 327
355 355 355 354 353 350 350 353 355 355 355 356 358 359 360 361 361 359 358 355 353 354 354 354 352 348 346 347 348 350 352 352 352 351 350 348 347 345 342 340 337 337 336
355 355 355 355 354 352 349 349 350 353 354 355 357 359 360 360 360 361 361 361 359 358 354 354 352 351 350 350 351 352 353 352 353 353 354 354 353 350 346 343 341 339 335
355 356 356 355 354 353 349 349 349 349 352 354 355 356 357 358 357 359 358 358 358 358 355 352 351 350 348 349 353 353 354 354 354 357 357 356 353 353 351 344 344 343 339
356 356 356 356 355 352 348 346 347 348 349 351 352 353 355 355 356 354 353 353 354 359 361 358 354 352 357 356 353 354 355 357 361 359 355 354 353 352 351 348 345 342 339
357 357 357 356 355 355 352 349 347 347 347 349 351 352 351 347 348 352 354 354 354 352 354 355 357 357 356 356 358 360 361 361 361 359 356 354 353 351 350 347 346 343 339
358 358 357 357 356 356 354 352 349 349 350 351 351 352 353 352 351 350 351 352 354 354 355 355 355 356 356 358 360 362 359 359 358 356 356 350 351 350 344 341 337 338 338
358 358 358 358 358 357 355 353 351 350 350 352 353 353 354 355 354 352 352 352 352 352 350 351 352 353 356 358 358 356 353 358 358 355 351 349 344 341 336 334 333 335 330
357 356 356 357 357 358 357 354 352 351 350 350 352 354 354 354 355 355 354 354 355 354 354 356 360 363 363 362 363 362 358 357 356 351 347 345 339 336 335 332 331 332 331